Miscellaneous Local Product
Issued by NWS Hastings, NE

Home | Current Version | Previous Version | Graphics & Text | Print | Product List | Glossary On
Versions: 1 2 3 4 5 6 7 8 9 10 11 12 13 14 15 16 17 18 19 20 21 22 23 24 25 26 27 28 29 30 31 32 33 34 35 36 37 38 39 40 41 42 43 44 45 46 47 48 49 50
000
AXUS43 KGID 040502
MISGRI

GID CWA HOURLY WEATHER ROUNDUP
NATIONAL WEATHER SERVICE HASTINGS NE
1200 AM CDT SAT JUL 04 2015

NOTE: "FAIR" INDICATES FEW OR NO CLOUDS BELOW 12,000 FEET WITH NO
SIGNIFICANT WEATHER AND/OR OBSTRUCTIONS TO VISIBILITY.

...SOUTH CENTRAL NEBRASKA...

CITY           SKY/WX    TMP DP  RH WIND       PRES   REMARKS
GRAND ISLAND   CLEAR     64  61  90 S6        30.03R
HASTINGS       CLEAR     67  62  84 SE6       30.03R
KEARNEY        CLEAR     64  61  88 SE7       30.03S
ORD            CLEAR     67  61  81 SE6       30.00R
YORK           CLOUDY    66  64  94 S5        30.02S
AURORA         CLEAR     64  63  96 CALM      30.02R
LEXINGTON      CLEAR     66  62  87 SE8       30.04R
HOLDREGE       CLEAR     64  60  86 SE5       30.04R
HEBRON         CLEAR     65  62  90 CALM      30.02R

...NEBRASKA PANHANDLE...

CITY           SKY/WX    TMP DP  RH WIND       PRES   REMARKS
CHADRON        PTCLDY    69  58  67 CALM      29.96F
ALLIANCE       MOCLDY    65  59  81 S9        30.03S
SCOTTSBLUFF    CLOUDY    72  57  59 SE9       30.03S
SIDNEY         CLOUDY    69  58  67 SE10      30.08S

...WESTERN AND NORTH CENTRAL NEBRASKA...

CITY           SKY/WX    TMP DP  RH WIND       PRES   REMARKS
VALENTINE      CLEAR     68  60  75 SE10      29.99S
AINSWORTH      CLEAR     66  61  82 SE9       30.01S
ONEILL         CLEAR     68  65  90 SE8       30.00S
BROKEN BOW     CLEAR     65  61  87 SE3       30.03R
IMPERIAL       PTCLDY    69  60  73 SE12      30.05R
NORTH PLATTE   CLEAR     68  61  78 SE8       30.03S
MCCOOK         CLEAR     68  60  75 SE6       30.04R

...EASTERN NEBRASKA...

CITY           SKY/WX    TMP DP  RH WIND       PRES   REMARKS
NORFOLK        CLEAR     65  62  90 S7        29.98F
SO SIOUX CITY  CLEAR     64  59  83 CALM      29.98R
TEKAMAH        CLEAR     61  57  87 SW5       29.98S
COLUMBUS       CLEAR     61  54  77 CALM      29.97F
ALBION         CLEAR     63  60  91 CALM      30.00F FOG
OMAHA EPPLEY   PTCLDY    65  59  81 CALM      29.99S
OFFUTT AFB     CLEAR     57  56  97 E2        29.99R
MILLARD          N/A     63  60  89 CALM      29.99F FOG
LINCOLN        CLEAR     69  63  81 CALM      30.01R HAZE
NEBRASKA CITY  CLEAR     69  51  53 CALM      30.01R
BEATRICE       CLEAR     67  59  75 CALM      30.00S
FALLS CITY     CLEAR     67  59  75 CALM      29.99R

...NORTHERN KANSAS...

CITY           SKY/WX    TMP DP  RH WIND       PRES   REMARKS
GOODLAND       PTCLDY    70  57  63 SE9       30.08R
HILL CITY      CLEAR     67  59  75 E5        30.03R
NORTON         CLEAR     64  57  77 CALM      30.03S
PHILLIPSBURG   CLEAR     70  63  78 E3        30.02S
SMITH CENTER   CLEAR     64  61  88 E8        30.02S
HAYS           CLEAR     66  57  72 SE7       30.02F
RUSSELL        CLEAR     67  62  84 SE8       30.01R
CONCORDIA      CLEAR     66  62  87 SE3       30.02R
SALINA         CLEAR     72  62  71 SE7       30.01R
TOPEKA         PTCLDY    66  62  87 CALM      30.00R FOG



USA.gov is the U.S. government's official web portal to all federal, state and local government web resources and services.